Location: Unspecified
(51.3762°N, 0.0000°E)
Time: 19:15:37
(UTC+00:00)

nSIGHT-1 - Visible Passes

Search period start: 25 August 2019 00:00
Search period end: 04 September 2019 00:00
Orbit: 345 x 352 km, 51.6° (Epoch: 25 August)

Date Brightness Start Highest point End Pass type
(mag) Time Alt. Az. Time Alt. Az. Time Alt. Az.
25 Aug ? 03:41:21 23° SW 03:42:55 55° SSE 03:45:47 10° E visible
26 Aug ? 02:33:59 23° ESE 02:33:59 23° ESE 02:35:37 10° E visible
26 Aug ? 04:05:29 13° W 04:08:04 87° S 04:10:59 10° E visible
27 Aug ? 02:58:05 57° SSE 02:58:05 57° SSE 03:00:53 10° E visible
28 Aug ? 03:22:11 40° W 03:23:06 88° S 03:26:01 10° E visible
29 Aug ? 02:14:46 20° E 02:14:46 20° E 02:15:52 10° E visible
29 Aug ? 03:46:16 19° W 03:48:13 82° N 03:51:08 10° E visible
30 Aug ? 02:38:52 43° E 02:38:52 43° E 02:40:57 10° E visible
30 Aug ? 04:10:23 10° W 04:13:18 82° S 04:16:13 10° ESE visible
31 Aug ? 03:03:01 81° NW 03:03:06 83° N 03:06:01 10° E visible
31 Aug ? 04:35:27 10° W 04:38:17 49° SSW 04:41:06 10° SE visible
01 Sep ? 01:55:43 10° E 01:55:43 10° E 01:55:46 10° E visible
01 Sep ? 03:27:14 40° W 03:28:07 80° SSW 03:31:02 10° ESE visible
02 Sep ? 02:20:03 16° E 02:20:03 16° E 02:20:47 10° E visible
02 Sep ? 03:51:34 23° W 03:53:02 47° SSW 03:55:51 10° SE visible
03 Sep ? 02:44:33 22° ESE 02:44:33 22° ESE 02:45:44 10° ESE visible
03 Sep ? 04:16:04 14° WSW 04:17:47 24° SSW 04:20:12 10° SSE visible
